Probability
4 2 1 0 0 0 0 0 0 0 0 0 0 0 0 0 0 0 0 0 0 0 0 0 0 0 0 0 0 0 0 1 2 3 3 2 1 0 0 0 0 0 0 0
1 1 0 0 0 0 0 0 0 0 0 0 0 0 0 0 0 0 0 0 0 0 0 0 0 0 0 0 0 0 0 1 2 3 3 2 1 0 0 0 0 0 0 0
0 0 0 0 0 0 0 0 0 0 0 0 0 0 0 0 0 0 0 0 0 0 0 0 0 0 0 0 0 0 0 0 1 1 2 1 1 0 0 0 0 0 0 0
0 0 0 0 0 0 0 0 0 0 0 0 0 0 0 0 0 0 0 0 0 0 0 0 0 0 0 0 0 0 0 0 0 1 1 0 0 0 0 0 0 0 0 0
0 0 0 0 0 0 0 0 0 0 0 0 0 0 0 0 0 0 0 0 0 0 0 0 0 0 0 0 0 0 0 0 1 1 1 0 0 0 0 0 0 0 0 0
0 0 0 0 0 0 0 0 0 0 0 0 0 0 0 0 0 0 0 0 0 0 0 0 0 0 0 0 0 0 0 0 1 2 1 0 0 0 0 0 0 0 0 0
0 0 0 0 0 0 0 0 0 0 0 0 0 0 0 0 0 0 0 0 0 0 0 0 0 0 0 0 0 0 0 0 0 1 1 1 1 1 0 0 0 0 0 0
0 0 0 0 0 0 0 0 0 0 0 0 0 0 0 0 0 0 0 0 0 0 0 0 0 0 0 0 0 0 0 0 0 0 1 1 1 0 0 0 0 0 0 0
0 0 0 0 0 0 0 0 0 0 0 0 0 0 0 0 0 0 0 0 0 0 0 0 0 0 0 0 0 0 0 0 0 0 2 2 1 0 0 0 0 0 0 0
0 0 0 0 0 0 0 0 0 0 0 0 0 0 0 0 0 0 0 0 0 0 0 0 0 0 0 0 0 0 0 0 0 0 1 2 1 0 0 0 0 0 0 0
0 0 0 0 0 0 0 0 0 0 0 0 0 0 0 0 0 0 0 0 0 0 0 0 0 0 0 0 0 0 0 0 0 0 0 1 1 0 0 0 0 0 0 0
0 0 0 0 0 0 0 0 0 0 0 0 0 0 0 0 0 0 0 0 0 0 0 0 0 0 0 0 0 0 0 0 0 0 0 0 0 0 0 0 0 0 0 0
0 0 0 0 0 0 0 0 0 0 0 0 0 0 0 0 0 0 0 0 0 0 0 0 0 0 0 0 0 0 0 0 0 0 0 0 0 0 0 0 0 0 0 0
0 0 0 0 0 0 0 0 0 0 0 0 0 0 0 0 0 0 0 0 0 0 0 0 0 0 0 0 0 0 0 0 0 0 0 0 0 0 0 0 0 0 0 0
0 0 0 0 0 0 0 0 0 0 0 0 0 0 0 0 0 0 0 0 0 0 0 0 0 0 0 0 0 0 0 0 0 0 0 0 0 0 0 0 0 0 0 0
0 0 0 0 0 0 0 0 0 0 0 0 0 0 0 0 0 0 0 0 0 0 0 0 0 0 0 0 0 0 0 0 0 0 0 0 0 0 0 0 0 0 0 0
0 0 0 0 0 0 0 0 0 0 0 0 0 0 0 0 0 0 0 0 0 0 0 0 0 0 0 0 0 0 0 0 0 0 0 0 0 0 0 0 0 0 0 0
0 0 0 0 0 0 0 0 0 0 0 0 0 0 0 0 0 0 0 0 0 0 0 0 0 0 0 0 0 0 0 0 0 0 0 0 0 0 0 0 0 0 0 0
0 0 0 0 0 0 0 0 0 0 0 0 0 0 0 0 0 0 0 0 0 0 0 0 0 0 0 0 0 0 0 0 0 0 0 0 0 0 0 0 0 0 0 0
0 0 0 0 0 0 0 0 0 0 0 0 0 0 0 0 0 0 0 0 0 0 0 0 0 0 0 0 0 0 0 0 0 0 0 0 0 0 0 0 0 0 0 0
0 0 0 0 0 0 0 0 0 0 0 0 0 0 0 0 0 0 0 0 0 0 0 0 0 0 0 0 0 0 0 0 0 0 0 0 0 0 0 0 0 0 0 0
0 0 0 0 0 0 0 0 0 0 0 0 0 0 0 0 0 0 0 0 0 0 0 0 0 0 0 0 0 0 0 0 0 0 0 0 0 0 0 0 0 0 0 0
0 0 0 0 0 0 0 0 0 0 0 0 0 0 0 0 0 0 0 0 0 0 0 0 0 0 0 0 0 0 0 0 0 0 0 0 0 0 0 0 0 0 0 0
0 0 0 0 0 0 0 0 0 0 0 0 0 0 0 0 0 0 0 0 0 0 0 0 0 0 0 0 0 0 0 0 0 0 0 0 0 0 0 0 0 0 0 0
0 0 0 0 0 0 0 0 0 0 0 0 0 0 0 0 0 0 0 0 0 0 0 0 0 0 0 0 0 0 0 0 0 0 0 0 0 0 0 0 0 0 0 0
0 0 0 0 0 0 0 0 0 0 0 0 0 0 0 0 0 0 0 0 0 0 0 0 0 0 0 0 0 0 0 0 0 0 0 0 0 0 0 0 0 0 0 0
Wind_Speed
5 6 10 12 11 6 5 6 7 6 3 4 9 11 11 8 7 8 8 8 9 10 10 7 8 8 8 8 10 10 11 10 8 6 6 6 7 6 5 6 6 7 7 7
4 11 11 7 7 7 7 7 6 4 3 4 7 12 11 10 9 10 11 11 10 9 7 6 6 6 8 9 9 10 10 9 9 8 7 5 4 4 5 4 5 7 7 7
10 6 6 7 8 10 10 10 8 4 2 2 4 9 10 9 8 9 10 10 10 10 10 8 6 7 7 7 8 8 9 9 9 9 5 3 2 1 3 4 5 6 7 7
8 6 6 7 9 10 11 8 7 5 3 4 4 8 8 8 9 10 10 9 10 10 9 7 6 6 7 8 7 7 7 8 8 8 7 8 7 7 7 5 5 5 6 7
7 5 8 11 11 9 5 4 6 6 5 5 5 7 8 5 9 10 10 10 10 10 9 8 8 7 6 5 5 5 5 5 6 7 8 9 8 7 4 3 4 4 5 6
6 3 6 7 6 7 3 2 1 2 3 10 11 9 9 7 10 8 8 9 10 9 8 7 6 4 4 3 3 4 5 5 5 6 7 8 9 7 5 5 5 4 4 4
4 5 4 3 3 4 5 5 3 5 7 9 7 9 11 8 9 10 10 9 9 8 7 6 5 5 4 4 4 3 4 4 4 5 6 7 8 8 8 7 6 4 4 4
5 6 6 4 7 6 8 9 8 7 6 4 5 11 9 7 7 7 7 6 5 4 4 5 5 5 4 4 4 4 4 4 3 4 5 5 5 5 4 5 4 5 4 4
5 6 3 5 4 7 7 8 6 3 2 3 6 7 8 4 4 4 3 3 4 4 4 4 4 3 3 3 4 4 4 3 3 3 4 3 4 4 4 4 3 2 2 2
3 4 3 2 2 4 6 5 3 5 5 7 6 7 7 5 5 4 4 4 4 3 2 1 1 1 1 1 1 2 3 3 2 2 3 3 3 3 3 3 3 2 2 2
2 3 3 2 6 6 4 5 4 4 5 5 6 8 6 6 6 6 6 5 4 3 2 2 1 1 1 1 2 1 1 1 1 1 1 2 2 2 3 3 3 3 2 2
2 2 4 6 5 3 4 5 5 5 6 4 5 8 3 3 3 3 3 3 2 2 2 1 1 0 0 1 1 1 1 1 1 1 1 1 1 1 2 2 2 2 2 2
2 2 1 3 3 0 3 4 4 3 3 5 7 9 3 3 5 4 3 3 3 2 1 1 1 1 1 2 2 1 2 2 1 1 2 1 1 1 1 2 2 2 2 1
2 2 5 7 5 2 3 5 5 5 6 7 10 12 9 7 7 7 5 5 4 3 2 2 3 3 3 2 2 2 2 2 1 2 2 2 1 1 1 1 1 1 2 2
2 3 4 6 6 4 6 8 8 9 10 10 11 13 11 8 7 6 5 4 4 4 4 4 4 4 4 3 3 2 2 2 2 2 2 2 1 1 1 1 0 0 1 1
1 3 2 5 6 6 9 11 12 13 12 12 14 16 9 9 6 6 6 5 6 6 6 5 5 4 4 4 4 3 3 3 2 3 3 2 2 1 1 1 1 1 1 1
1 2 2 5 5 2 9 12 11 9 8 9 14 14 7 7 7 6 5 5 5 6 6 5 5 5 4 4 4 4 4 2 2 2 2 1 1 2 2 2 2 2 2 1
5 4 2 2 0 9 11 4 7 9 11 10 10 9 7 8 7 5 4 4 6 6 6 5 5 5 5 4 4 3 2 2 3 2 2 1 1 2 1 1 2 2 2 2
9 7 4 3 5 10 9 6 5 7 8 6 7 8 7 7 5 5 2 3 5 6 5 5 5 4 4 4 3 2 2 1 2 2 2 2 2 2 2 3 2 2 1 1
5 6 5 4 5 9 9 5 3 3 8 3 4 6 6 4 5 6 4 5 5 4 4 4 4 3 3 4 3 1 2 2 3 4 3 2 2 3 3 3 2 1 2 2
3 4 7 8 8 10 8 5 1 5 7 2 3 5 5 5 7 7 6 4 4 4 4 3 3 3 4 4 2 1 2 3 4 2 2 2 2 3 2 2 1 1 2 2
7 6 7 6 8 11 4 2 5 6 3 2 4 5 6 7 7 7 6 5 3 3 3 3 3 4 4 3 2 2 3 3 2 1 1 2 2 2 1 2 1 2 2 2
7 8 6 9 9 5 3 5 5 3 4 4 5 6 6 7 7 7 7 6 4 3 3 3 3 3 4 3 2 3 3 2 1 1 1 2 1 1 1 2 2 2 2 2
5 4 4 6 9 8 6 5 5 4 5 5 5 5 6 8 8 8 7 6 5 3 3 3 3 3 4 4 3 3 3 2 1 1 1 1 1 1 1 1 2 2 2 2
7 4 5 10 10 7 7 7 6 5 5 5 5 5 6 7 8 7 6 5 5 4 3 2 3 3 4 4 4 3 2 1 1 1 1 1 1 1 1 1 1 2 2 3
7 8 9 12 9 7 7 5 4 5 6 6 6 6 5 4 6 5 5 4 4 4 3 3 3 3 4 4 4 3 3 1 1 1 1 1 1 1 1 1 0 0 1 1
Wind_Direction
187 188 208 206 208 213 184 193 213 223 219 210 235 248 253 253 247 246 245 239 238 238 239 231 223 216 209 205 200 198 197 197 187 184 191 199 211 212 212 215 212 209 210 208
189 222 217 202 203 215 218 222 226 250 234 223 252 258 254 247 239 233 235 238 238 243 248 234 226 216 208 206 204 201 198 193 191 195 192 192 190 202 210 211 213 213 212 210
208 224 191 194 205 211 223 221 217 227 303 279 278 274 254 252 244 243 239 234 234 229 232 230 218 216 208 205 204 202 200 195 195 191 171 158 158 187 201 211 216 216 213 213
230 236 209 205 214 205 229 216 208 212 210 249 212 268 259 243 252 248 243 237 236 235 230 227 217 214 210 211 205 201 198 194 193 185 179 181 192 207 214 210 210 207 208 214
224 208 205 216 217 201 220 196 202 211 214 242 224 252 267 230 240 244 241 236 235 233 227 223 218 214 212 206 196 193 184 187 188 185 187 189 202 213 210 196 199 208 210 213
242 239 213 216 215 201 193 132 211 208 209 239 221 223 262 216 222 233 235 233 232 229 227 226 221 204 199 188 181 177 169 183 184 181 186 190 197 200 193 200 206 213 215 216
245 246 235 198 179 194 180 162 197 211 216 238 193 214 249 223 220 218 227 234 233 226 220 215 205 193 189 182 179 173 165 178 182 178 187 193 198 197 200 204 207 206 213 221
202 231 216 199 189 189 198 188 197 206 214 246 195 225 248 232 230 230 231 237 242 231 216 207 197 192 192 186 176 172 175 181 179 177 187 193 193 194 200 204 201 205 213 221
204 236 231 215 195 172 192 210 203 208 247 255 243 265 294 260 247 243 242 241 245 239 226 213 201 193 189 186 183 180 177 177 178 179 175 178 186 185 187 187 192 197 207 209
198 239 255 244 189 215 193 180 174 194 203 234 249 242 239 240 244 247 241 241 250 250 245 236 191 187 193 187 166 149 159 174 179 178 179 171 177 178 175 163 169 184 197 191
207 209 255 210 201 204 187 193 208 207 198 202 247 255 225 211 219 231 244 246 243 233 236 253 270 241 136 115 118 121 148 147 139 151 166 162 168 170 167 168 180 190 189 181
206 199 233 238 249 225 206 198 192 214 237 231 246 261 249 216 240 240 261 279 272 241 235 239 254 258 85 144 172 185 186 172 181 171 152 154 163 164 167 181 194 187 185 191
180 180 202 315 312 256 221 213 210 220 229 230 236 261 297 337 332 326 309 296 300 289 281 286 264 238 234 233 231 232 217 206 197 169 159 153 154 166 190 197 193 183 179 187
188 194 197 212 225 220 257 261 229 214 231 242 242 263 287 309 307 304 303 292 288 286 278 271 266 261 254 241 230 231 244 226 195 174 166 170 185 184 186 192 186 182 176 177
151 218 233 252 263 259 257 260 254 239 236 242 256 262 273 281 280 284 289 291 289 286 280 271 267 267 266 265 257 242 240 230 202 185 183 194 188 154 133 137 155 187 178 173
149 213 233 268 261 256 265 257 248 248 243 244 258 264 263 269 275 276 276 274 273 274 273 273 273 269 263 262 264 257 248 236 198 193 205 195 178 168 174 185 175 173 169 153
208 168 187 259 278 300 258 238 232 237 231 231 248 258 275 278 278 274 273 271 272 280 288 287 283 277 273 269 263 258 252 227 200 206 205 193 190 197 204 197 180 185 184 157
196 182 195 238 149 235 244 236 226 237 250 242 250 265 269 265 261 254 251 269 281 286 286 285 285 287 290 292 286 280 260 206 198 200 201 199 200 215 214 203 206 204 185 175
200 187 190 197 233 268 280 264 220 222 252 249 255 272 280 283 276 265 290 300 276 274 279 283 285 289 296 302 296 287 267 223 204 215 217 211 202 208 205 207 214 213 189 172
193 187 189 199 215 240 251 256 244 209 255 258 260 277 295 317 282 272 306 305 301 310 315 313 316 318 311 309 304 254 246 232 234 234 230 221 205 204 212 216 209 203 183 173
154 194 212 219 233 253 255 263 137 200 250 272 271 273 277 259 252 279 297 294 295 306 316 325 325 319 310 317 317 258 252 251 259 262 241 225 214 210 209 207 201 179 165 149
190 194 208 202 223 247 244 156 191 228 260 264 270 273 272 269 276 288 290 284 286 298 313 323 321 318 324 331 316 272 267 277 291 274 238 231 222 209 191 177 177 163 160 152
210 201 199 205 222 235 202 210 236 240 250 256 261 269 271 275 278 285 288 286 283 283 294 305 298 304 323 332 317 280 295 323 320 255 234 239 237 216 185 180 183 175 170 166
246 222 220 248 254 251 251 249 249 243 243 254 258 264 264 269 276 280 280 284 287 292 298 309 312 311 318 331 332 308 323 329 288 250 258 239 211 210 190 189 186 190 188 180
227 219 234 253 262 272 256 240 244 251 254 261 270 262 257 264 273 276 278 284 286 295 302 302 293 294 304 316 317 324 333 327 280 253 242 242 226 200 196 213 216 208 215 198
216 219 230 248 242 239 254 244 244 252 261 262 267 271 266 257 271 282 283 291 292 294 304 304 302 299 305 311 311 322 326 304 254 241 232 228 218 202 194 192 292 228 182 178